CW0949 Weather Reports


Display with metric or nautical units.
time (UTC)temp
F
wind
direction
speed
MPH
gust
MPH
rain 1hr
in
rain 24hr
in
rain mn
in
humidity
%
barometer
mb
20260507115729 59 100 0.0 0.0 0.00 0.00 0.00 61 1016.3
20260507115234 59 90 0.0 0.0 0.00 0.00 0.00 61 1016.2
20260507114731 59 90 0.0 0.0 0.00 0.00 0.00 61 1016.3
20260507114231 60 90 0.0 0.0 0.00 0.00 0.00 61 1016.3
20260507113730 59 90 0.0 0.0 0.00 0.00 0.00 63 1016.5
20260507112731 59 90 0.0 0.0 0.00 0.00 0.00 61 1016.4
20260507112230 60 90 0.0 0.0 0.00 0.00 0.00 63 1016.5
20260507111730 60 90 0.0 0.0 0.00 0.00 0.00 60 1016.5
20260507111230 60 90 0.0 0.0 0.00 0.00 0.00 60 1016.4
20260507110730 60 90 0.0 0.0 0.00 0.00 0.00 60 1016.5
20260507110230 60 91 0.0 0.0 0.00 0.00 0.00 60 1016.6
20260507105730 60 91 0.0 0.0 0.00 0.00 0.00 59 1016.6
20260507105230 61 91 0.0 1.0 0.00 0.00 0.00 61 1016.5
20260507104724 61 92 0.0 2.0 0.00 0.00 0.00 62 1016.5
20260507104216 62 84 0.0 4.0 0.00 0.00 0.00 60 1016.5
20260507103714 61 88 0.0 4.0 0.00 0.00 0.00 62 1016.4
20260507103213 60 91 0.0 0.0 0.00 0.00 0.00 63 1016.5
20260507102708 60 91 0.0 0.0 0.00 0.00 0.00 59 1016.5
20260507101703 59 95 0.0 3.0 0.00 0.00 0.00 61 1016.5
20260507101202 59 71 0.0 3.0 0.00 0.00 0.00 61 1016.4
20260507100703 60 13 0.0 0.0 0.00 0.00 0.00 63 1016.4
20260507100202 60 0 0.0 6.0 0.00 0.00 0.00 65 1016.4
20260507095706 59 343 0.0 6.0 0.00 0.00 0.00 67 1016.3
20260507095203 58 62 0.0 0.0 0.00 0.00 0.00 68 1016.3
20260507094703 58 63 0.0 0.0 0.00 0.00 0.00 67 1016.4
20260507094203 58 63 0.0 0.0 0.00 0.00 0.00 68 1016.4
20260507093702 58 63 0.0 0.0 0.00 0.00 0.00 67 1016.4
20260507093201 58 63 0.0 0.0 0.00 0.00 0.00 66 1016.4
20260507092702 58 71 0.0 0.0 0.00 0.00 0.00 70 1016.4
20260507092202 58 60 0.0 0.0 0.00 0.00 0.00 70 1016.3
20260507091701 58 62 0.0 0.0 0.00 0.00 0.00 70 1016.4
20260507091202 57 65 0.0 0.0 0.00 0.00 0.00 70 1016.4
20260507090701 57 36 0.0 0.0 0.00 0.00 0.00 71 1016.4
20260507090201 57 39 0.0 0.0 0.00 0.00 0.00 68 1016.5
20260507085700 57 39 0.0 0.0 0.00 0.00 0.00 70 1016.4
20260507084201 56 67 0.0 0.0 0.00 0.00 0.00 74 1016.4
20260507083701 56 67 0.0 0.0 0.00 0.00 0.00 74 1016.4
20260507083202 55 49 0.0 0.0 0.00 0.00 0.00 75 1016.4
20260507082700 55 49 0.0 0.0 0.00 0.00 0.00 75 1016.4
20260507081656 54 55 0.0 0.0 0.00 0.00 0.00 77 1016.4
20260507081155 54 57 0.0 0.0 0.00 0.00 0.00 76 1016.3
20260507080153 53 44 0.0 0.0 0.00 0.00 0.00 77 1016.4
20260507075652 53 45 0.0 0.0 0.00 0.00 0.00 79 1016.3
20260507075151 52 45 0.0 0.0 0.00 0.00 0.00 79 1016.3
20260507074651 52 46 0.0 0.0 0.00 0.00 0.00 80 1016.2
20260507074152 52 46 0.0 0.0 0.00 0.00 0.00 80 1016.2
20260507073651 52 46 0.0 0.0 0.00 0.00 0.00 80 1016.1
20260507073148 52 48 0.0 0.0 0.00 0.00 0.00 81 1016.1
20260507072146 51 49 0.0 0.0 0.00 0.00 0.00 82 1016.0
20260507071643 51 49 0.0 0.0 0.00 0.00 0.00 82 1016.0
20260507071144 51 50 0.0 0.0 0.00 0.00 0.00 83 1016.0
20260507070641 51 51 0.0 0.0 0.00 0.00 0.00 83 1016.0
20260507070140 51 51 0.0 0.0 0.00 0.00 0.00 84 1015.9
20260507065638 51 51 0.0 0.0 0.00 0.00 0.00 84 1015.9
20260507065135 51 51 0.0 0.0 0.00 0.00 0.00 84 1015.9
20260507064634 51 53 0.0 0.0 0.00 0.00 0.00 85 1016.0
20260507064135 51 55 0.0 0.0 0.00 0.00 0.00 85 1015.9
20260507063631 50 55 0.0 0.0 0.00 0.00 0.00 86 1015.9
20260507063133 50 57 0.0 0.0 0.00 0.00 0.00 86 1016.0
20260507062632 50 55 0.0 0.0 0.00 0.00 0.00 86 1015.9
20260507062132 50 49 0.0 0.0 0.00 0.00 0.00 87 1015.8
20260507061129 50 43 0.0 0.0 0.00 0.00 0.00 88 1015.7
20260507060630 50 43 0.0 0.0 0.00 0.00 0.00 88 1015.6
20260507055128 50 43 0.0 0.0 0.00 0.00 0.00 89 1015.5
20260507054128 50 44 0.0 0.0 0.00 0.00 0.00 89 1015.5
20260507053629 50 44 0.0 0.0 0.00 0.00 0.00 89 1015.5
20260507053129 50 44 0.0 0.0 0.00 0.00 0.00 89 1015.5
20260507052627 50 44 0.0 0.0 0.00 0.00 0.00 89 1015.4
20260507051625 50 44 0.0 0.0 0.00 0.00 0.00 89 1015.2
20260507051124 50 44 0.0 0.0 0.00 0.00 0.00 89 1015.1
20260507050625 49 44 0.0 0.0 0.00 0.00 0.00 89 1015.1
20260507050123 49 44 0.0 0.0 0.00 0.00 0.00 89 1015.1
20260507045122 49 44 0.0 0.0 0.00 0.00 0.00 89 1015.0
20260507044619 49 44 0.0 0.0 0.00 0.00 0.00 88 1015.0
20260507044120 49 44 0.0 0.0 0.00 0.00 0.00 89 1014.9
20260507043619 49 44 0.0 0.0 0.00 0.00 0.00 89 1014.8
20260507043117 49 44 0.0 0.0 0.00 0.00 0.00 89 1014.7
20260507042617 50 44 0.0 0.0 0.00 0.00 0.00 89 1014.8
20260507041115 50 44 0.0 0.0 0.00 0.00 0.00 89 1014.6
20260507040614 50 44 0.0 0.0 0.00 0.00 0.00 89 1014.6
20260507035612 50 44 0.0 0.0 0.00 0.00 0.00 89 1014.5
20260507035112 50 44 0.0 0.0 0.00 0.00 0.00 88 1014.4
20260507034610 50 44 0.0 0.0 0.00 0.00 0.00 88 1014.3
20260507034109 50 44 0.0 0.0 0.00 0.00 0.00 88 1014.3
20260507033609 50 44 0.0 0.0 0.00 0.00 0.00 88 1014.3
20260507033109 50 44 0.0 0.0 0.00 0.00 0.00 88 1014.2
20260507032107 50 44 0.0 0.0 0.00 0.00 0.00 88 1014.2
20260507031607 50 44 0.0 0.0 0.00 0.00 0.00 88 1014.1
20260507031107 50 44 0.0 0.0 0.00 0.00 0.00 88 1014.2
20260507030607 50 44 0.0 0.0 0.00 0.00 0.00 89 1014.2
20260507025606 50 44 0.0 0.0 0.00 0.00 0.00 89 1014.1
20260507025105 50 44 0.0 0.0 0.00 0.00 0.00 89 1014.1
20260507024603 50 44 0.0 0.0 0.00 0.00 0.00 89 1014.0
20260507024103 50 44 0.0 0.0 0.00 0.00 0.00 88 1014.1
20260507023604 50 44 0.0 0.0 0.00 0.00 0.00 88 1014.1
20260507022603 50 44 0.0 0.0 0.00 0.00 0.00 88 1013.9
20260507022102 50 44 0.0 0.0 0.00 0.00 0.00 88 1014.1
20260507021606 50 44 0.0 0.0 0.00 0.00 0.00 88 1014.0
20260507021102 50 44 0.0 0.0 0.00 0.01 0.00 88 1013.9
20260507020603 50 44 0.0 0.0 0.00 0.01 0.00 88 1013.9
20260507015602 50 44 0.0 0.0 0.00 0.01 0.00 86 1013.9
20260507015102 50 44 0.0 0.0 0.00 0.01 0.00 86 1013.8
20260507014102 50 44 0.0 0.0 0.00 0.01 0.00 86 1013.8
20260507013102 50 44 0.0 0.0 0.00 0.01 0.00 87 1013.9
20260507012602 50 44 0.0 0.0 0.00 0.01 0.00 86 1013.8
20260507012102 50 44 0.0 0.0 0.00 0.01 0.00 86 1013.7
20260507011103 50 44 0.0 0.0 0.00 0.01 0.00 85 1013.8
20260507010602 50 44 0.0 0.0 0.00 0.01 0.00 84 1013.7
20260507005601 51 44 0.0 0.0 0.00 0.01 0.00 86 1013.7
20260507005102 51 44 0.0 0.0 0.00 0.01 0.00 86 1013.8
20260507004600 51 44 0.0 0.0 0.00 0.01 0.00 85 1013.7
20260507003601 51 44 0.0 0.0 0.00 0.01 0.00 85 1013.7
20260507002601 51 44 0.0 0.0 0.00 0.01 0.00 83 1013.5
20260507002100 51 44 0.0 0.0 0.00 0.01 0.00 83 1013.5
20260507001600 51 44 0.0 0.0 0.00 0.01 0.00 83 1013.5
20260507001100 51 44 0.0 0.0 0.00 0.01 0.00 83 1013.5
20260507000100 51 44 0.0 0.0 0.00 0.01 0.00 83 1013.6
20260506235559 51 44 0.0 0.0 0.00 0.01 0.00 83 1013.5
20260506234558 51 44 0.0 0.0 0.00 0.01 0.00 82 1013.5
20260506234058 51 44 0.0 0.0 0.00 0.01 0.00 82 1013.5
20260506233058 51 44 0.0 0.0 0.00 0.01 0.00 82 1013.4
20260506232555 51 44 0.0 0.0 0.00 0.01 0.00 82 1013.3
20260506232055 51 44 0.0 0.0 0.00 0.01 0.00 82 1013.4
20260506231554 51 44 0.0 0.0 0.00 0.01 0.00 82 1013.4
20260506231053 51 44 0.0 0.0 0.00 0.01 0.00 82 1013.2
20260506230550 51 44 0.0 0.0 0.00 0.01 0.00 82 1013.2
20260506230050 51 44 0.0 0.0 0.00 0.01 0.00 82 1013.0
20260506225049 51 44 0.0 0.0 0.00 0.01 0.00 81 1013.0
20260506224547 51 44 0.0 0.0 0.00 0.01 0.00 81 1013.0
20260506224049 51 44 0.0 0.0 0.00 0.01 0.00 81 1012.9
20260506223548 51 44 0.0 0.0 0.00 0.01 0.00 81 1013.0
20260506222044 51 44 0.0 0.0 0.00 0.01 0.00 81 1012.9
20260506221544 51 44 0.0 0.0 0.00 0.01 0.00 81 1012.9
20260506221042 51 44 0.0 0.0 0.00 0.01 0.00 81 1012.9
20260506220604 51 44 0.0 0.0 0.00 0.01 0.00 80 1012.8
20260506215540 51 44 0.0 0.0 0.00 0.01 0.01 80 1012.9
20260506215036 51 44 0.0 0.0 0.00 0.01 0.01 80 1012.8
20260506214536 51 44 0.0 0.0 0.00 0.01 0.01 80 1012.9
20260506214036 52 44 0.0 0.0 0.00 0.01 0.01 80 1012.9
20260506213534 52 44 0.0 0.0 0.00 0.01 0.01 80 1012.9
20260506212530 52 44 0.0 0.0 0.00 0.02 0.01 80 1012.9
20260506212031 52 44 0.0 0.0 0.00 0.02 0.01 79 1012.9
20260506211530 52 44 0.0 0.0 0.00 0.02 0.01 79 1012.8
20260506211030 52 44 0.0 0.0 0.00 0.02 0.01 79 1012.6
20260506210531 52 44 0.0 0.0 0.00 0.02 0.01 79 1012.7
20260506210030 52 44 0.0 0.0 0.00 0.02 0.01 79 1012.7
20260506205528 52 44 0.0 0.0 0.00 0.02 0.01 78 1012.6
20260506205028 52 44 0.0 0.0 0.00 0.02 0.01 78 1012.6
20260506204026 52 44 0.0 0.0 0.00 0.02 0.01 78 1012.5
20260506203527 52 44 0.0 0.0 0.00 0.02 0.01 77 1012.4
20260506202526 52 44 0.0 0.0 0.00 0.02 0.01 76 1012.4
20260506202025 52 44 0.0 0.0 0.00 0.02 0.01 76 1012.4
20260506201524 52 44 0.0 0.0 0.00 0.02 0.01 76 1012.3
20260506201024 52 45 0.0 0.0 0.00 0.02 0.01 76 1012.2
20260506200524 52 46 0.0 0.0 0.00 0.02 0.01 76 1012.2
20260506200024 52 48 0.0 0.0 0.00 0.02 0.01 76 1012.2
20260506195024 52 43 0.0 3.0 0.00 0.02 0.01 75 1012.2
20260506194021 52 55 0.0 4.0 0.00 0.02 0.01 76 1012.2
20260506193520 52 67 0.0 0.0 0.00 0.02 0.01 76 1012.1
20260506193020 52 61 0.0 0.0 0.00 0.02 0.01 76 1012.0
20260506192516 52 71 0.0 0.0 0.00 0.02 0.01 77 1012.0
20260506192014 52 63 0.0 0.0 0.00 0.02 0.01 77 1011.9
20260506191512 52 63 0.0 0.0 0.00 0.02 0.01 77 1011.9
20260506191017 52 78 0.0 2.0 0.00 0.02 0.01 78 1011.8
20260506190510 52 78 0.0 2.0 0.00 0.02 0.01 77 1011.9
20260506190017 52 74 0.0 5.0 0.00 0.02 0.01 77 1011.8
20260506185506 52 38 0.0 7.0 0.00 0.02 0.01 77 1011.7
20260506185004 53 13 0.0 7.0 0.00 0.02 0.01 77 1011.6
20260506184008 53 26 1.0 9.0 0.00 0.02 0.01 76 1011.6
20260506183509 53 20 0.0 9.0 0.00 0.02 0.01 76 1011.6
20260506183015 53 355 0.0 6.0 0.00 0.02 0.01 76 1011.6
20260506182510 53 82 0.0 0.0 0.00 0.02 0.01 76 1011.6
20260506182008 53 97 1.0 9.0 0.00 0.02 0.01 76 1011.5
20260506181511 53 103 1.0 9.0 0.00 0.02 0.01 75 1011.3
20260506181005 53 82 0.0 8.0 0.00 0.02 0.01 75 1011.2
20260506180503 53 40 0.0 0.0 0.00 0.02 0.01 74 1011.2
20260506180012 54 60 0.0 0.0 0.00 0.02 0.01 74 1011.2
20260506175503 54 62 1.0 13.0 0.00 0.02 0.01 72 1011.0
20260506175003 54 42 1.0 13.0 0.00 0.02 0.01 71 1010.9
20260506174509 54 30 1.0 8.0 0.00 0.02 0.01 71 1010.8
20260506174002 55 34 2.0 8.0 0.00 0.02 0.01 69 1010.8
20260506173006 55 86 1.0 7.0 0.00 0.02 0.01 68 1010.7
20260506172502 55 81 1.0 7.0 0.00 0.02 0.01 68 1010.7
20260506172002 55 88 2.0 8.0 0.00 0.02 0.01 68 1010.6
20260506171506 55 60 3.0 11.0 0.00 0.02 0.01 67 1010.6
20260506171002 55 5 4.0 11.0 0.00 0.02 0.01 66 1010.5
20260506170501 56 5 3.0 10.0 0.00 0.02 0.01 65 1010.4
20260506165502 57 17 4.0 10.0 0.00 0.02 0.01 64 1010.3
20260506165002 57 346 3.0 15.0 0.00 0.02 0.01 64 1010.4
20260506164506 57 42 2.0 15.0 0.00 0.02 0.01 62 1010.3
20260506164002 57 53 2.0 11.0 0.00 0.02 0.01 63 1010.2
20260506163502 57 0 3.0 13.0 0.00 0.02 0.01 62 1010.1
20260506163006 57 0 1.0 13.0 0.00 0.02 0.01 61 1010.1
20260506162501 58 0 0.0 11.0 0.00 0.02 0.01 59 1010.1
20260506162001 58 0 0.0 10.0 0.00 0.02 0.01 61 1010.0
20260506161002 57 92 1.0 10.0 0.00 0.02 0.01 61 1010.0
20260506160502 58 78 1.0 10.0 0.00 0.02 0.01 62 1010.1
20260506160006 57 294 1.0 10.0 0.00 0.02 0.01 62 1010.0
20260506155501 57 5 0.0 9.0 0.00 0.02 0.01 62 1009.8
20260506155002 57 32 0.0 4.0 0.00 0.02 0.01 63 1009.8
20260506154507 57 38 1.0 13.0 0.00 0.02 0.01 65 1009.9
20260506153501 57 36 2.0 11.0 0.00 0.02 0.01 63 1009.9
20260506153006 58 355 1.0 10.0 0.00 0.02 0.01 66 1009.9
20260506152001 58 19 1.0 9.0 0.00 0.02 0.01 64 1009.9
20260506151507 59 84 1.0 8.0 0.00 0.02 0.01 63 1009.8
20260506151002 59 59 0.0 4.0 0.00 0.02 0.01 64 1009.8
20260506150502 59 51 0.0 5.0 0.00 0.02 0.01 64 1009.8
20260506150008 59 54 0.0 6.0 0.00 0.02 0.01 64 1009.7
20260506145502 59 9 1.0 8.0 0.00 0.02 0.01 63 1009.7
20260506144506 59 59 1.0 11.0 0.00 0.02 0.01 63 1009.6
20260506143501 59 76 1.0 11.0 0.00 0.02 0.01 61 1009.6
20260506143001 59 15 1.0 5.0 0.00 0.02 0.01 63 1009.6
20260506142002 59 5 1.0 10.0 0.00 0.02 0.01 63 1009.7
20260506141002 59 14 0.0 7.0 0.00 0.02 0.01 60 1009.6
20260506140501 59 32 0.0 9.0 0.00 0.02 0.01 61 1009.6
20260506140001 59 13 1.0 9.0 0.00 0.02 0.01 60 1009.6
20260506135501 59 70 1.0 10.0 0.00 0.02 0.01 61 1009.6
20260506134958 60 65 1.0 10.0 0.00 0.02 0.01 60 1009.5
20260506134458 60 355 1.0 9.0 0.00 0.02 0.01 59 1009.5
20260506133956 60 42 0.0 7.0 0.00 0.02 0.01 62 1009.4
20260506132953 60 44 0.0 7.0 0.00 0.02 0.01 61 1009.4
20260506131951 60 69 1.0 11.0 0.00 0.02 0.01 59 1009.4
20260506131451 60 34 1.0 9.0 0.00 0.02 0.01 60 1009.3
20260506130449 59 344 1.0 8.0 0.00 0.02 0.01 63 1009.3
20260506125450 59 10 0.0 8.0 0.00 0.02 0.01 64 1009.3
20260506124949 59 43 1.0 10.0 0.00 0.02 0.01 65 1009.3
20260506124450 59 66 1.0 10.0 0.00 0.02 0.01 64 1009.3
20260506123948 59 37 0.0 9.0 0.00 0.02 0.01 64 1009.3
20260506123448 59 34 1.0 7.0 0.00 0.02 0.01 66 1009.3
20260506122947 59 34 1.0 7.0 0.00 0.02 0.01 66 1009.3
20260506122445 58 0 1.0 9.0 0.00 0.02 0.01 66 1009.3
20260506121945 58 19 1.0 9.0 0.00 0.02 0.01 67 1009.3
20260506121447 58 0 0.0 5.0 0.00 0.02 0.01 69 1009.2
20260506120943 58 261 0.0 2.0 0.00 0.02 0.01 69 1009.3
20260506120440 58 262 1.0 8.0 0.00 0.02 0.01 67 1009.3
20260506115939 58 28 1.0 8.0 0.00 0.02 0.01 68 1009.3